Skip Page Navigation
NASA JPL Caltech
NASA Logo - Jet Propulsion Laboratory + View the NASA Portal
+ Center for Near-Earth Object Studies
JPL Home Earth Solar System Stars & Galaxies Technology
JPL Solar System Dynamics
BODIES ORBITS EPHEMERIDES TOOLS PHYSICAL DATA DISCOVERY FAQ SITE MAP
IMPORTANT: The SSD Announcement email list is now available. Major changes are coming in the near future, including possible hostname and/or URL changes. To be notified of such changes, subscribe to this email list.

Please visit this page for more details.


JPL Small-Body Database Browser
Search: [ help ]  
324750 (2007 FR32)
Classification: Main-belt Asteroid          SPK-ID: 2324750
Ephemeris | Orbit Diagram | Orbital Elements | Mission Design | Physical Parameters | Discovery Circumstances | Close-Approach Data ]

[ show orbit diagram ]
Orbital Elements at Epoch 2458600.5 (2019-Apr-27.0) TDB
Reference: JPL 10 (heliocentric ecliptic J2000)
 Element Value Uncertainty (1-sigma)   Units 
e .1544885850997557 8.1661e-08  
a 3.111401524027257 4.9914e-08 au
q 2.630725504903062 2.6236e-07 au
i 3.576610864148982 8.7916e-06 deg
node 174.0471211774851 0.00013295 deg
peri 55.22257080020132 0.00013536 deg
M 56.60800806250282 2.8467e-05 deg
tp 2458285.284264429926
(2018-Jun-15.78426443)
0.00015548 TDB
period 2004.622114241013
5.49
4.8238e-05
1.321e-07
d
yr
n .1795849688789364 4.3214e-09 deg/d
Q 3.592077543151451 5.7625e-08 au
  Orbit Determination Parameters
   # obs. used (total)      99  
   data-arc span      5341 days (14.62 yr)  
   first obs. used      2003-09-29  
   last obs. used      2018-05-14  
   planetary ephem.      DE431  
   SB-pert. ephem.      SB431-N16  
   condition code      0  
   norm. resid. RMS      .60041  
   source      ORB  
   producer      Otto Matic  
   solution date      2019-Jul-14 09:10:26  

Additional Information
 Earth MOID = 1.62287 au 
 Jupiter MOID = 1.4006 au 
 T_jup = 3.197 
[ show covariance matrix ]

Ephemeris | Orbit Diagram | Orbital Elements | Mission Design | Physical Parameters | Discovery Circumstances | Close-Approach Data ]

Physical Parameter Table
Parameter Symbol Value Units Sigma Reference Notes
absolute magnitude H 16.4   n/a MPO450272  

324750 (2007 FR32)          Discovered 2007-Mar-20 by Spacewatch at Kitt Peak
Reference: 20120406/Numbers.arcLast Updated: 2012-04-09

[ hide close-approach data ]
Close-Approach Data   ...sorted by Date/Time (TDB)
Date/Time (TDB) Time Uncertainty
(days_HH:MM)
Body Nominal Distance (au) Minimum Distance (au) Maximum Distance (au) V-relative (km/s) V-infinity (km/s) JD (TDB) Time Uncertainty (minutes) Semi-major axis (km) Semi-minor axis (km) range-LOV angle (deg) N-sigma BP Orbit Ref. Reference Modified
1905-Jun-18 21:48 00:09 Jupiter 1.44047293325741 1.44047039992747 1.44047546670492 1.31229902642014 0.738982282510638 2417015.408501471 8.96284051376794 1318.75762620176 635.620313904899 -41.7078354389493 1044772.76772832 T 10 CATAB v2.0e-lin.ifort 2019-Jul-14 09:10:29 2019-Jul-14 09:10
1915-Jul-16 06:18 00:08 Jupiter 1.68576870506824 1.68576357277713 1.68577383736539 2.21152590589555 1.97127808938725 2420694.762154474 8.18747932318145 368.556288954714 28.8057306108895 -82.8202303214793 855944.48968321 T 10 CATAB v2.0e-lin.ifort 2019-Jul-14 09:10:29 2019-Jul-14 09:10
1977-Aug-05 15:04 00:03 Jupiter 1.65305690458023 1.65305461784774 1.65305919130652 1.70844787509679 1.37622628604415 2443361.127948102 3.3036697930895 162.076529943861 97.3547084385662 -44.95032093402 699164.946385873 T 10 CATAB v2.0e-lin.ifort 2019-Jul-14 09:10:29 2019-Jul-14 09:10
1987-Aug-31 11:54 00:02 Jupiter 1.4584408908187 1.45843987489458 1.45844190673933 1.49525542003137 1.03645721598684 2447038.996121068 2.26304468501395 397.071794587197 186.485631448472 1.80734367769826 701755.470528936 T 10 CATAB v2.0e-lin.ifort 2019-Jul-14 09:10:29 2019-Jul-14 09:10
2049-Sep-10 04:10 00:03 Jupiter 1.94123535622019 1.94123355779009 1.94123715464941 2.71012953174076 2.54403983583277 2469694.673815100 2.6859472330198 102.317691574934 46.4573739108299 -78.3497428322469 885851.609804873 T 10 CATAB v2.0e-lin.ifort 2019-Jul-14 09:10:29 2019-Jul-14 09:10
2059-Oct-03 04:31 00:04 Jupiter 1.43406408238185 1.43406301404741 1.43406515077043 1.25196073208575 0.621382364610898 2473369.688455341 3.70557279595935 1811.73716137247 470.429343856784 -20.4446996023932 1260645.8470009 T 10 CATAB v2.0e-lin.ifort 2019-Jul-14 09:10:29 2019-Jul-14 09:10
2069-Oct-29 12:29 00:05 Jupiter 1.70776933596397 1.70776619653734 1.7077724753938 2.34118030749849 2.11876417388086 2477049.020051556 4.76345673934298 235.603192559394 27.5085955201271 -77.4999694538153 953750.672478233 T 10 CATAB v2.0e-lin.ifort 2019-Jul-14 09:10:29 2019-Jul-14 09:10
2131-Nov-17 03:43 00:10 Jupiter 1.62989866196648 1.62989311681872 1.62990420706801 1.58452333068114 1.21299552252738 2499711.655185391 9.88745987384216 597.981458994657 116.968248873133 -28.5309068856943 555690.705192123 T 10 CATAB v2.0e-lin.ifort 2019-Jul-14 09:10:29 2019-Jul-14 09:10
2141-Dec-13 07:21 00:11 Jupiter 1.47416641792174 1.47416275030064 1.47417008552365 1.53312443460893 1.09604561591475 2503390.805950915 10.6510409223837 812.698328115437 198.096676189017 26.988899444193 508414.41652695 T 10 CATAB v2.0e-lin.ifort 2019-Jul-14 09:10:29 2019-Jul-14 09:10
Ephemeris | Orbit Diagram | Orbital Elements | Mission Design | Physical Parameters | Discovery Circumstances | Close-Approach Data ]
ABOUT SSD CREDITS/AWARDS PRIVACY/COPYRIGHT GLOSSARY LINKS
FirstGov
(server date/time)  
NASA Home Page
Site Manager:   Ryan S. Park
Webmaster  Alan B. Chamberlin